Lexington Weather

Lexington, Massachusetts, USA

41°F
11/27/2020 3:28am 
  • Lexington Conditions: Fog, Overcast
  • Temperature: 41.0°F / 5.0°CWarmer 1.3°F than last hour.
  • Dew Point: 40.3°FIncreased 1.3°Fsince last hour.
  • Relative Humidity: 97
  • Wind: Calm, 10-min avg: Calm, gust: None
  • Barometer: 29.97 in Steady
  • Visibility: ½ mile
  • Rain Today: 0.00 in
  •   
Southeast Middlesex County - Special Weather Statement
 - SEE ALL NEARBY ALERTS -

Regional Weather Roundup
for Boston / Norton, MA

        
000
ASUS41 KBOX 250704
RWRBOX

REGIONAL WEATHER ROUNDUP
NATIONAL WEATHER SERVICE BOSTON/NORTON MA
200 AM EST WED NOV 25 2020

NOTE:  "FAIR" INDICATES FEW OR NO CLOUDS BELOW 12,000 FEET WITH NO 
SIGNIFICANT WEATHER AND/OR OBSTRUCTIONS TO VISIBILITY.

MAZALL-250800-
EASTERN MASSACHUSETTS
  
CITY           SKY/WX    TMP DP  RH WIND       PRES   REMARKS
BOSTON         MOCLDY    28  16  60 N5        30.49R WCI  23          
BEVERLY        CLEAR     26  16  65 N5        30.47R WCI  20          
LAWRENCE       CLEAR     24  16  71 N5        30.50R WCI  18          
BEDFORD        PTCLDY    21  16  81 CALM      30.48R                  
BLUE HILL        N/A     26  14  60 N7        30.43R WCI  18          
NORWOOD        PTCLDY    26  20  77 NW3       30.48R                  
MARSHFIELD     PTCLDY    28  25  86 CALM      30.46S                  
PLYMOUTH       PTCLDY    25  21  85 CALM      30.46R                  
TAUNTON        PTCLDY    27  24  89 CALM      30.46S                  
NEW BEDFORD    MOCLDY    27  23  85 CALM      30.46R                  
$$

MAZALL-250800-
CAPE COD AND THE ISLANDS
  
CITY           SKY/WX    TMP DP  RH WIND       PRES   REMARKS
FALMOUTH       NOT AVBL                                               
HYANNIS        PTCLDY    27  21  78 CALM      30.46R                  
CHATHAM        CLEAR     29  21  72 CALM      30.47S                  
PROVINCETOWN   CLEAR     27  22  81 S3        30.48R                  
NANTUCKET      PTCLDY    33  24  69 NE6       30.46S WCI  28          
MARTHAS VNYRD  PTCLDY    28  23  81 NE5       30.46R WCI  23          
$$
 
MAZALL-250800-
CENTRAL AND WESTERN MASSACHUSETTS
  
CITY           SKY/WX    TMP DP  RH WIND       PRES   REMARKS
WORCESTER      MOCLDY    26  13  57 NE5       30.42R WCI  20          
FITCHBURG      PTCLDY    24  17  74 CALM      30.47S                  
ORANGE         MOCLDY    26  23  88 CALM      30.44R                  
SPRINGFIELD    CLOUDY    32  19  58 E6        30.43S WCI  26          
WESTFIELD      MOCLDY    31  23  72 N5        30.44R WCI  26          
NORTH ADAMS    CLOUDY    33  20  58 E12       30.38S WCI  24          
PITTSFIELD     CLOUDY    29  24  82 CALM      30.34S                  
$$
 
RIZALL-250800-
RHODE ISLAND
  
CITY           SKY/WX    TMP DP  RH WIND       PRES   REMARKS
PROVIDENCE     MOCLDY    31  20  63 NE7       30.47R WCI  24          
NEWPORT        MOCLDY    34  23  64 NE5       30.45S WCI  30          
BLOCK ISLAND   MOCLDY    40  28  62 E6        30.44S                  
SMITHFIELD     MOCLDY    28  20  71 NE3       30.45S                  
WESTERLY       MOCLDY    32  21  64 N6        30.45S WCI  26          
$$
 
CTZALL-250800-
CONNECTICUT
  
CITY           SKY/WX    TMP DP  RH WIND       PRES   REMARKS
BRADLEY INTL   CLOUDY    32  24  72 NW3       30.44R                  
HARTFORD       MOCLDY    36  25  64 W3        30.44R                  
BRIDGEPORT     CLOUDY    41  27  57 NE9       30.41S                  
DANBURY        CLOUDY    35  26  69 CALM      30.40S                  
GROTON         MOCLDY    37  21  52 E13       30.44S WCI  29          
NEW HAVEN      CLOUDY    40  23  50 NE6       30.42S                  
CHESTER        FAIR      36  18  48 CALM      30.43R                  
MERIDEN        CLOUDY    34  25  69 CALM      30.43S                  
WILLIMANTIC    MOCLDY    29  24  82 CALM      30.44F                  
OXFORD         CLOUDY    35  22  58 E6        30.39S WCI  30          
$$

MEZ002-015-021-024-NHZ003-005-008-011-012-014-VTZ005-008-250800-
NORTHERN NEW ENGLAND
  
CITY           SKY/WX    TMP DP  RH WIND       PRES   REMARKS
PORTLAND ME    CLEAR     21  14  74 N3        30.52R                  
BANGOR ME      MOCLDY    20  12  71 CALM      30.50R                  
CONCORD NH     PTCLDY    19  13  77 CALM      30.48R                  
MANCHESTER NH  PTCLDY    25  13  60 CALM      30.47R                  
NASHUA NH      PTCLDY    21  17  84 NW6       30.50R WCI  13          
PORTSMOUTH NH  MOCLDY    25  10  54 N6        30.48  WCI  18          
JAFFREY NH     PTCLDY    23  15  71 CALM      30.42R                  
KEENE NH       PTCLDY    23  20  88 CALM      30.45S                  
BURLINGTON VT  CLOUDY    25  13  60 SE7       30.37F WCI  17          
MT. WASHINGTON NOT AVBL                                               
$$

NYZ052-076-250800-
EASTERN NEW YORK
  
CITY           SKY/WX    TMP DP  RH WIND       PRES   REMARKS
ALBANY         CLOUDY    25  16  68 CALM      30.39F                  
NEW YORK CITY  CLOUDY    46  25  43 SE8       30.40R                  
$$
 
ANZALL-250800-
MARINE OBSERVATIONS
  
STATION/POSITION TIME  TEMP    WIND        PRES    VSBY  WAVE
                       AIR SEA DIR/SP/G                  HT/PER
                 (UTC) (F)     (DEG/KT/KT) (MB)    (MI)  (FT/S)
BOSTON BUOY      0640   39 50   80/  6/ 12 1032.2F
BUZZARDS BAY     0600           50/ 12/ 16 1032.2S
NANTUCKET SOUND  0640      51   70/  8/ 10   N/A
MASS BAY-STELLWA NOT AVBL
ISLE OF SHOALS   0600   33      70/ 11/ 14 1031.6F
S OF BLOCK IS    0626      57                N/A           2/10
$$

......................KEY.........................
  SKY/WX - SKY CONDITION/PRESENT WEATHER
  TMP    - TEMPERATURE IN FAHRENHEIT
  DWPT   - DEWPOINT IN FAHRENHEIT
  RH     - RELATIVE HUMIDITY IN PERCENT
  WIND   - DIRECTION AND SPEED IN MPH
  PRES   - MEAN SEA LEVEL PRESSURE IN INCHES OF HG
  WCI    - WIND CHILL INDEX
  VSB    - VISIBILITY IN MILES
  HX     - HEAT INDEX
  TC     - TEMPERATURE IN CELSIUS
  VRB    - VARIABLE WIND DIRECTION
  N/A    - NOT AVAILABLE
  
      

Other recent Regional Weather Roundups

Fri Nov 27, 12:04am

Thu Nov 26, 11:04pm

Thu Nov 26, 10:04pm

Thu Nov 26, 9:04pm

Thu Nov 26, 8:04pm

Thu Nov 26, 7:04pm

Thu Nov 26, 6:04pm

Thu Nov 26, 5:04pm

Thu Nov 26, 4:04pm

Thu Nov 26, 2:04pm

Thu Nov 26, 1:04pm

Thu Nov 26, 12:04pm

Thu Nov 26, 11:04am

Thu Nov 26, 10:04am

Thu Nov 26, 9:04am

Thu Nov 26, 8:04am

Thu Nov 26, 7:04am

Thu Nov 26, 6:04am

Thu Nov 26, 5:04am

Thu Nov 26, 4:04am

Thu Nov 26, 3:04am

Thu Nov 26, 2:04am

Thu Nov 26, 1:04am

Thu Nov 26, 12:04am

Wed Nov 25, 11:04pm

Wed Nov 25, 10:04pm

Wed Nov 25, 9:04pm

Wed Nov 25, 8:04pm

Wed Nov 25, 7:04pm

Wed Nov 25, 6:04pm

Wed Nov 25, 5:04pm

Wed Nov 25, 4:04pm

Wed Nov 25, 3:05pm

Wed Nov 25, 2:04pm

Wed Nov 25, 1:04pm

Wed Nov 25, 12:05pm

Wed Nov 25, 11:04am

Wed Nov 25, 10:04am

Wed Nov 25, 9:04am

Wed Nov 25, 8:04am

Wed Nov 25, 7:04am

Wed Nov 25, 6:04am

Wed Nov 25, 5:04am

Wed Nov 25, 4:04am

Wed Nov 25, 3:04am

Wed Nov 25, 1:04am

Wed Nov 25, 12:04am

Tue Nov 24, 11:04pm

Tue Nov 24, 10:04pm

Tue Nov 24, 9:04pm

Tue Nov 24, 8:04pm

Tue Nov 24, 7:04pm

Tue Nov 24, 6:04pm

Tue Nov 24, 5:04pm

Tue Nov 24, 4:05pm

Tue Nov 24, 3:05pm

Tue Nov 24, 2:05pm

Tue Nov 24, 1:05pm

Tue Nov 24, 12:04pm

Tue Nov 24, 11:04am

Tue Nov 24, 10:04am

Tue Nov 24, 9:04am

Tue Nov 24, 8:04am

Tue Nov 24, 7:04am

Tue Nov 24, 6:04am

Tue Nov 24, 5:04am

Tue Nov 24, 4:05am

Tue Nov 24, 3:04am

Tue Nov 24, 2:04am

Tue Nov 24, 1:04am

Tue Nov 24, 12:05am

Mon Nov 23, 11:04pm

Mon Nov 23, 10:04pm

Mon Nov 23, 9:04pm

Mon Nov 23, 8:04pm

Mon Nov 23, 7:04pm

Mon Nov 23, 6:04pm

Mon Nov 23, 5:04pm

Mon Nov 23, 4:04pm

Mon Nov 23, 3:04pm

Mon Nov 23, 2:04pm

Mon Nov 23, 1:04pm

Mon Nov 23, 12:04pm

Mon Nov 23, 11:04am

Mon Nov 23, 10:04am

Mon Nov 23, 9:04am

Mon Nov 23, 8:05am

Mon Nov 23, 7:04am

Mon Nov 23, 6:04am

Mon Nov 23, 5:04am

Mon Nov 23, 4:04am

Mon Nov 23, 3:04am

Mon Nov 23, 2:04am

Mon Nov 23, 1:04am

Mon Nov 23, 12:05am

Sun Nov 22, 11:04pm

Sun Nov 22, 10:04pm

Sun Nov 22, 9:04pm

Sun Nov 22, 8:05pm

Sun Nov 22, 7:04pm

Sun Nov 22, 6:04pm

Sun Nov 22, 5:04pm

Sun Nov 22, 4:04pm

Sun Nov 22, 3:04pm

Sun Nov 22, 2:04pm

Sun Nov 22, 1:05pm

Sun Nov 22, 12:04pm

Sun Nov 22, 11:04am

Sun Nov 22, 10:05am

Sun Nov 22, 9:04am

Sun Nov 22, 8:04am

Sun Nov 22, 7:04am

Sun Nov 22, 6:04am

Sun Nov 22, 5:04am

Sun Nov 22, 4:04am

Sun Nov 22, 3:04am

Sun Nov 22, 2:04am

Sun Nov 22, 1:04am

Sun Nov 22, 12:04am

Sat Nov 21, 11:04pm

Sat Nov 21, 10:04pm

Sat Nov 21, 9:04pm

Sat Nov 21, 8:05pm

Sat Nov 21, 7:04pm

Sat Nov 21, 6:04pm

Sat Nov 21, 5:04pm

Sat Nov 21, 4:05pm

Sat Nov 21, 3:04pm

Sat Nov 21, 2:04pm

Sat Nov 21, 1:05pm

Sat Nov 21, 12:04pm

Sat Nov 21, 11:04am

Sat Nov 21, 10:04am

Sat Nov 21, 9:04am

Sat Nov 21, 8:04am

Sat Nov 21, 7:04am

Sat Nov 21, 6:04am

Sat Nov 21, 5:04am

Sat Nov 21, 4:04am

Sat Nov 21, 3:04am

Sat Nov 21, 2:04am

Sat Nov 21, 1:04am

Sat Nov 21, 12:04am

Fri Nov 20, 11:04pm

Fri Nov 20, 10:04pm

Fri Nov 20, 9:04pm

Fri Nov 20, 8:04pm

Fri Nov 20, 7:04pm

Fri Nov 20, 6:04pm

Fri Nov 20, 5:04pm

Fri Nov 20, 4:05pm

Fri Nov 20, 3:05pm

Fri Nov 20, 2:04pm

Fri Nov 20, 1:04pm

Fri Nov 20, 12:04pm

Fri Nov 20, 11:04am

Fri Nov 20, 10:04am

Fri Nov 20, 9:04am

Fri Nov 20, 8:04am

Fri Nov 20, 7:04am

Fri Nov 20, 6:04am

Fri Nov 20, 5:04am

Fri Nov 20, 4:04am

Meta data:

ID: 3b107b62-b3f4-4606-8ca5-9e1312ac8b71
Link: https://api.weather.gov/products/3b107b62-b3f4-4606-8ca5-9e1312ac8b71